Wind_Speed
31 30 32 33 34 36 37 37 38 37 36 36 34 32 30 30 30 30 29 29 30 30 30 30 30 30 30 30 30 31 30 30 29 30 30 31 31 32 32 32 32 31 31 32
30 29 30 33 33 33 34 35 36 36 36 36 36 36 34 32 31 30 29 29 29 30 29 29 29 29 29 29 29 29 29 29 29 29 29 29 30 30 30 30 30 30 31 31
27 28 29 30 31 32 32 32 33 35 35 36 36 35 35 35 34 31 30 29 29 28 28 29 28 28 28 28 28 28 29 29 29 28 28 29 29 29 29 29 28 28 29 29
26 27 28 27 28 30 30 31 32 33 33 35 35 35 35 35 35 33 32 30 29 29 28 28 28 28 28 28 28 28 28 28 28 28 28 28 28 28 28 27 27 28 28 28
25 26 27 27 27 28 30 30 31 32 32 32 33 34 34 34 34 33 33 31 30 29 28 28 28 28 28 28 28 28 28 27 27 27 27 28 28 27 27 27 27 28 28 27
26 26 26 26 27 28 29 29 29 30 31 31 31 32 32 32 33 33 32 31 31 30 29 28 28 28 28 28 28 28 28 27 27 26 26 26 26 26 26 26 27 27 27 26
24 25 25 25 26 27 29 29 29 29 29 30 30 30 31 31 32 32 31 31 31 30 30 29 28 28 27 27 27 27 27 26 26 26 25 25 25 25 25 25 25 24 24 23
23 24 24 24 25 26 27 27 28 29 29 29 28 28 29 30 30 31 31 30 30 30 30 30 29 28 27 26 26 26 26 25 25 25 24 24 24 24 24 24 24 23 22 22
24 23 23 23 24 25 25 26 26 27 28 28 27 28 28 28 29 29 30 29 29 29 30 30 29 29 28 26 26 26 25 25 25 25 24 24 23 23 23 24 24 23 22 21
23 23 24 23 23 24 25 25 25 25 26 28 28 27 27 27 27 28 28 28 28 28 28 29 29 29 28 26 26 25 25 24 24 24 24 24 24 24 23 23 22 21 20 20
24 24 24 24 24 23 24 25 25 25 26 26 28 27 27 26 26 27 27 27 26 26 27 27 28 28 27 27 26 25 24 24 24 24 24 24 23 23 22 21 20 20 20 20
24 24 24 23 23 23 23 24 25 26 25 26 26 27 27 26 26 26 26 26 25 25 25 26 26 26 26 26 25 25 24 23 23 23 22 22 21 21 20 20 19 19 19 20
23 24 24 24 23 23 24 24 24 25 25 25 25 26 26 26 26 25 25 25 24 24 24 25 25 24 24 24 24 24 24 23 22 22 22 22 21 20 19 19 19 19 19 20
23 23 24 24 24 24 24 25 25 25 25 25 24 24 25 26 26 25 25 25 24 24 24 24 23 23 23 24 23 23 22 22 22 21 21 21 21 20 21 20 20 20 20 20
24 25 25 25 26 25 25 25 26 26 25 26 25 24 24 25 25 25 26 25 25 24 24 23 22 22 23 23 23 22 22 22 22 21 21 21 20 20 21 21 20 20 20 21
25 25 26 26 27 26 26 26 25 25 25 26 26 26 25 24 25 25 25 25 24 24 23 23 23 23 22 23 23 23 22 22 21 21 21 21 20 19 20 20 20 20 20 20
25 25 25 26 26 26 26 26 26 25 25 25 26 26 26 25 25 25 25 25 24 24 23 23 23 23 22 23 23 23 23 23 22 21 21 20 20 20 20 21 21 21 21 22
25 25 25 25 26 26 26 26 27 26 25 25 26 26 25 24 24 25 25 25 24 24 24 23 22 22 22 23 22 22 22 22 22 22 22 21 21 20 20 21 21 22 22 22
24 25 24 24 25 26 26 26 26 26 26 25 25 26 26 25 25 26 26 25 25 24 24 24 23 23 23 23 23 23 22 22 22 22 22 22 22 21 21 21 21 21 22 22
24 24 24 24 24 24 25 25 24 24 25 25 26 27 27 26 26 26 26 26 25 25 24 24 23 23 22 22 22 22 22 22 22 22 22 22 22 22 22 22 21 21 21 21
22 23 22 22 23 23 23 24 24 24 24 24 25 26 26 26 26 27 27 27 26 25 25 24 24 23 22 22 22 23 23 23 23 23 23 23 23 22 22 22 22 22 22 23
21 22 22 22 22 22 22 23 23 24 24 25 25 25 26 27 27 27 27 27 27 26 26 25 25 24 23 23 23 23 23 23 23 23 24 24 24 23 23 23 23 23 23 23
19 20 20 20 20 21 22 22 22 23 24 25 25 25 26 27 27 28 27 28 28 28 27 26 26 25 24 24 24 24 24 24 24 24 24 24 23 23 23 23 24 24 24 24
18 18 18 18 18 19 20 21 22 22 22 23 25 25 25 26 27 27 27 27 27 28 28 28 27 26 26 25 25 25 25 25 25 25 24 24 24 24 24 24 24 25 25 25
18 18 18 17 18 19 19 19 20 20 21 22 22 23 24 25 26 26 26 26 27 27 27 27 26 26 26 25 25 25 25 25 25 25 24 24 25 25 24 24 24 25 25 25
19 19 19 18 18 19 19 19 19 19 21 21 21 21 23 24 24 25 25 25 25 26 26 26 26 26 25 26 25 25 25 24 24 23 23 24 24 23 23 23 24 24 24 24
19 19 19 19 19 19 19 19 19 19 20 20 21 21 22 23 24 24 24 24 24 24 25 25 25 25 26 26 26 25 24 23 23 23 22 22 22 22 22 22 23 23 23 22
Wind_Direction
235 234 232 231 229 229 230 232 234 235 236 236 237 237 238 240 243 246 248 250 252 254 256 258 259 261 262 264 267 270 272 274 276 278 281 283 286 287 287 287 286 286 286 286
235 235 234 231 230 230 231 232 235 236 236 236 237 238 239 240 242 244 246 248 251 253 255 257 259 260 261 263 266 269 272 274 277 279 281 283 286 288 288 287 286 286 287 286
236 234 235 234 231 233 232 233 235 236 237 238 239 241 242 243 243 244 245 247 250 252 254 256 258 259 261 263 266 269 271 274 277 280 282 284 286 289 289 288 287 289 288 289
236 234 235 232 231 232 233 235 236 237 238 240 241 242 243 244 243 244 245 248 249 250 252 255 256 258 260 262 265 268 271 274 277 280 282 284 285 287 288 289 288 289 289 290
233 234 235 232 232 232 232 234 236 237 239 241 242 243 244 245 244 245 245 247 248 250 251 253 255 258 260 263 266 267 269 273 277 279 281 283 285 286 288 289 288 288 288 289
235 236 236 234 235 234 235 236 237 239 239 241 243 245 244 244 245 245 246 246 248 250 251 252 254 256 259 263 265 266 270 273 275 277 280 283 284 286 288 290 289 288 287 287
237 238 238 237 238 237 238 238 239 240 241 240 243 245 244 244 245 246 246 246 247 249 251 252 253 256 259 261 264 267 270 272 275 278 280 282 284 285 287 290 291 290 288 286
237 238 237 238 239 239 239 239 240 242 243 242 243 244 244 244 245 245 247 248 248 249 251 252 254 256 258 261 264 267 270 272 273 276 278 281 283 285 287 289 291 291 288 286
237 238 237 238 238 238 238 240 240 240 241 243 244 244 244 244 245 245 247 248 250 250 252 253 254 255 257 260 263 265 266 268 271 274 276 279 281 284 287 289 290 290 287 285
237 236 238 239 239 239 240 241 242 241 242 244 245 245 245 245 245 245 247 249 251 252 253 253 254 256 256 259 262 264 264 266 270 274 276 278 281 283 286 288 288 288 285 284
237 238 239 239 240 242 243 242 244 244 244 245 245 246 247 246 245 244 245 248 249 250 251 252 253 254 255 256 259 262 264 266 269 273 276 278 279 282 285 287 287 286 286 285
240 240 240 240 241 243 245 246 246 247 247 247 246 245 245 245 244 244 244 245 247 248 248 249 251 252 254 255 255 258 262 266 268 272 277 278 279 281 282 283 284 286 287 289
240 240 241 242 243 244 246 246 246 248 247 246 245 245 244 243 243 243 244 245 245 246 247 248 249 251 252 255 255 256 259 264 268 272 277 279 279 279 281 283 284 285 287 288
242 243 243 244 246 247 247 247 247 248 247 246 245 243 242 242 241 243 243 243 244 247 248 248 247 248 250 251 252 255 258 262 267 271 275 278 279 278 279 280 282 282 284 286
246 246 246 247 247 247 247 248 248 248 247 244 244 242 241 241 242 244 243 242 244 246 247 248 248 248 247 247 249 254 260 264 266 269 272 277 279 280 280 280 280 281 284 286
248 248 248 248 247 246 247 247 248 247 246 244 242 242 242 241 242 242 243 243 244 245 247 249 250 250 249 248 249 253 257 261 265 268 271 276 278 280 280 280 281 282 284 286
249 249 248 247 246 246 247 246 246 245 244 242 240 241 241 242 242 241 242 243 243 245 247 249 250 250 250 248 249 253 256 259 263 267 270 273 276 279 280 280 281 281 282 284
250 251 251 251 249 247 246 245 245 244 242 240 239 238 239 239 240 240 240 241 242 243 246 249 251 250 251 249 251 254 257 261 265 267 269 272 273 277 281 282 281 280 282 283
251 251 252 253 251 249 248 247 245 244 242 240 238 239 239 240 240 240 240 240 241 243 246 249 250 251 252 250 252 256 259 263 267 269 270 273 274 276 280 283 283 284 283 284
252 251 250 251 251 251 248 246 245 246 244 242 241 241 241 242 242 240 239 241 241 243 245 248 250 252 253 251 253 256 259 264 269 270 272 274 275 276 279 282 283 284 285 286
252 250 250 250 251 251 248 245 245 246 245 244 243 243 243 242 241 241 240 241 242 243 245 248 250 252 253 252 254 256 260 264 267 270 273 274 274 275 277 280 282 284 284 285
252 250 251 252 251 250 249 248 248 247 247 246 245 245 244 242 242 242 241 242 243 244 246 248 250 252 253 254 256 258 261 264 267 269 271 273 273 274 275 278 281 284 284 285
251 251 253 252 251 251 250 250 250 249 248 246 244 244 244 242 241 241 241 242 244 245 246 248 249 251 253 255 257 260 262 264 266 268 270 272 272 272 274 277 281 284 285 286
251 251 252 252 252 252 251 251 249 248 247 246 244 244 243 242 242 242 242 243 244 245 246 248 249 250 252 255 257 259 261 264 266 268 268 269 270 273 275 278 282 285 286 286
253 252 252 253 251 250 251 251 250 249 247 246 246 244 243 242 242 242 243 244 245 245 246 248 249 250 251 252 254 257 261 263 266 267 266 268 270 272 274 279 283 284 285 286
253 253 254 253 251 250 251 251 250 248 247 246 247 247 244 242 241 242 243 245 245 245 246 247 248 249 251 252 254 257 260 263 265 266 266 268 270 271 274 278 282 284 285 286
254 255 255 254 253 251 251 251 250 248 247 246 247 246 245 244 243 242 243 244 245 246 247 248 248 249 252 254 255 257 259 262 263 264 266 267 269 271 274 279 282 284 285 286
Height
5556 5560 5563 5568 5573 5577 5581 5586 5591 5597 5601 5604 5607 5611 5614 5618 5620 5623 5625 5627 5630 5632 5633 5634 5635 5636 5637 5637 5637 5636 5635 5634 5633 5632 5630 5628 5626 5624 5621 5618 5616 5614 5613 5611
5550 5553 5556 5560 5565 5569 5574 5579 5583 5588 5592 5596 5599 5603 5607 5610 5612 5615 5618 5620 5622 5623 5625 5626 5627 5628 5629 5629 5629 5629 5628 5627 5626 5624 5622 5620 5618 5616 5613 5611 5609 5607 5605 5603
5544 5547 5549 5554 5560 5564 5568 5572 5576 5579 5585 5588 5591 5595 5598 5601 5604 5607 5610 5612 5614 5616 5617 5618 5619 5620 5621 5621 5621 5621 5620 5619 5618 5617 5615 5613 5611 5608 5606 5604 5601 5599 5597 5596
5538 5542 5545 5552 5554 5557 5561 5565 5568 5572 5576 5579 5583 5587 5590 5593 5596 5599 5602 5604 5606 5608 5610 5611 5612 5612 5613 5613 5613 5613 5613 5612 5611 5609 5608 5606 5604 5601 5599 5597 5594 5592 5590 5589
5533 5535 5539 5545 5548 5551 5554 5558 5562 5565 5569 5572 5575 5578 5582 5585 5587 5590 5593 5596 5598 5600 5602 5603 5604 5605 5605 5606 5606 5605 5605 5604 5603 5602 5600 5599 5597 5595 5592 5590 5588 5586 5584 5582
5527 5530 5534 5540 5542 5544 5549 5552 5555 5558 5561 5564 5567 5571 5575 5576 5579 5582 5584 5587 5590 5592 5594 5595 5596 5597 5598 5598 5598 5598 5597 5597 5596 5595 5594 5592 5590 5588 5586 5584 5582 5579 5577 5576
5522 5524 5528 5533 5535 5539 5544 5547 5549 5551 5554 5557 5560 5563 5566 5568 5571 5573 5576 5579 5581 5584 5586 5587 5588 5589 5590 5590 5590 5590 5590 5589 5588 5588 5587 5585 5583 5582 5580 5578 5576 5574 5572 5571
5517 5520 5526 5527 5529 5533 5536 5539 5541 5544 5547 5550 5553 5555 5558 5560 5563 5565 5568 5571 5573 5575 5577 5579 5580 5581 5582 5583 5583 5583 5582 5582 5581 5581 5580 5579 5577 5575 5573 5572 5570 5569 5567 5566
5513 5517 5519 5521 5523 5526 5529 5532 5534 5537 5539 5542 5545 5548 5550 5553 5555 5558 5560 5563 5565 5567 5569 5571 5572 5574 5575 5575 5575 5575 5575 5575 5574 5574 5573 5572 5571 5569 5568 5566 5565 5563 5562 5561
5507 5510 5513 5515 5517 5520 5522 5525 5527 5530 5533 5535 5538 5540 5543 5545 5548 5550 5552 5555 5557 5559 5561 5563 5564 5565 5566 5567 5568 5568 5568 5568 5568 5567 5566 5565 5564 5563 5562 5560 5559 5558 5557 5557
5501 5504 5507 5509 5511 5514 5516 5519 5521 5523 5526 5528 5530 5533 5535 5538 5540 5542 5545 5547 5549 5551 5553 5555 5556 5558 5559 5560 5560 5561 5561 5561 5561 5561 5560 5559 5558 5557 5556 5555 5554 5553 5553 5552
5496 5499 5501 5504 5506 5508 5510 5512 5514 5517 5519 5521 5523 5525 5528 5530 5533 5535 5537 5540 5542 5543 5545 5547 5548 5550 5551 5552 5553 5554 5555 5555 5555 5555 5554 5553 5552 5551 5550 5549 5549 5548 5548 5547
5489 5492 5494 5497 5499 5501 5503 5505 5507 5509 5512 5514 5515 5518 5520 5522 5525 5527 5530 5532 5535 5537 5538 5540 5541 5543 5544 5545 5546 5548 5548 5549 5549 5549 5548 5547 5547 5546 5545 5544 5543 5543 5543 5542
5483 5486 5488 5490 5492 5494 5496 5498 5500 5502 5504 5506 5508 5510 5512 5515 5518 5520 5522 5525 5527 5529 5531 5532 5534 5536 5537 5538 5540 5541 5542 5542 5543 5543 5543 5542 5541 5541 5540 5539 5539 5538 5537 5537
5477 5479 5481 5483 5485 5487 5489 5490 5493 5495 5496 5499 5501 5503 5505 5508 5510 5513 5515 5517 5520 5522 5524 5525 5527 5528 5530 5531 5533 5534 5535 5536 5537 5537 5537 5537 5536 5535 5535 5534 5534 5533 5532 5531
5471 5472 5474 5476 5478 5480 5482 5483 5485 5487 5489 5491 5493 5496 5498 5501 5503 5505 5508 5510 5513 5515 5517 5518 5520 5521 5523 5525 5526 5528 5529 5530 5530 5531 5531 5531 5530 5530 5529 5528 5528 5527 5527 5526
5464 5466 5467 5469 5470 5472 5474 5476 5478 5479 5481 5484 5486 5488 5491 5493 5496 5498 5501 5503 5506 5508 5510 5512 5513 5515 5516 5518 5520 5521 5522 5523 5524 5524 5525 5525 5524 5524 5523 5523 5522 5521 5521 5520
5457 5459 5460 5462 5463 5465 5466 5468 5470 5472 5474 5476 5479 5481 5484 5486 5489 5491 5494 5496 5499 5501 5503 5505 5506 5508 5509 5511 5513 5514 5515 5516 5517 5518 5518 5518 5518 5518 5517 5517 5516 5515 5514 5513
5450 5452 5453 5454 5456 5457 5459 5461 5462 5464 5467 5469 5472 5474 5477 5479 5482 5484 5487 5489 5492 5494 5496 5498 5499 5501 5502 5504 5506 5507 5508 5509 5510 5511 5511 5511 5511 5511 5511 5510 5509 5508 5507 5506
5443 5445 5446 5448 5449 5450 5452 5454 5455 5457 5459 5461 5464 5467 5470 5472 5474 5477 5480 5482 5485 5487 5489 5491 5492 5494 5495 5497 5499 5500 5501 5502 5503 5504 5504 5504 5504 5504 5504 5503 5502 5501 5501 5500
5436 5438 5439 5441 5442 5443 5445 5447 5448 5451 5452 5454 5457 5459 5462 5464 5467 5469 5472 5475 5478 5479 5482 5484 5485 5487 5488 5490 5491 5493 5494 5495 5496 5497 5497 5497 5497 5497 5497 5496 5496 5495 5494 5493
5430 5431 5433 5434 5435 5437 5438 5439 5441 5443 5445 5447 5450 5452 5454 5457 5459 5462 5464 5467 5470 5472 5474 5476 5478 5480 5481 5483 5484 5486 5487 5488 5489 5489 5489 5490 5490 5490 5489 5489 5488 5487 5486 5485
5424 5425 5426 5428 5429 5430 5431 5433 5434 5436 5438 5440 5442 5444 5447 5449 5452 5455 5457 5460 5462 5464 5466 5468 5470 5472 5474 5475 5477 5478 5480 5480 5481 5481 5482 5482 5482 5482 5482 5482 5481 5480 5479 5478
5418 5419 5420 5421 5422 5423 5425 5426 5427 5429 5430 5432 5434 5437 5439 5442 5444 5446 5449 5451 5454 5456 5458 5460 5462 5464 5466 5468 5469 5470 5471 5472 5473 5473 5474 5474 5474 5474 5474 5474 5473 5473 5472 5471
5412 5413 5414 5415 5416 5417 5418 5419 5420 5422 5424 5425 5427 5429 5431 5434 5436 5439 5441 5443 5446 5448 5450 5452 5454 5456 5458 5460 5461 5463 5464 5464 5465 5465 5466 5466 5466 5467 5467 5466 5466 5465 5464 5463
5407 5407 5408 5409 5410 5411 5412 5413 5414 5416 5417 5419 5421 5422 5424 5426 5429 5431 5433 5436 5438 5440 5442 5444 5446 5448 5450 5452 5453 5455 5456 5457 5457 5458 5458 5459 5459 5459 5459 5459 5458 5457 5456 5455
5400 5401 5402 5403 5404 5405 5406 5407 5408 5409 5411 5412 5414 5416 5418 5419 5422 5424 5426 5428 5430 5432 5434 5436 5438 5440 5442 5444 5445 5447 5448 5449 5450 5450 5451 5451 5451 5451 5451 5451 5450 5450 5449 5448